Flag for Australia Weather past 2 weeks in Hobart, Tasmania, Australia

Now
68 °F

Scattered clouds.


Feels Like: 68 °F
Forecast: 45 / 76 °F
Wind: 14 mph from West

Location: Hobart Airport

Current Time: Dec 20, 2014 at 12:10:27 PM

Latest Report: Dec 20, 2014 at 11:30 AM


Visibility: N/A

Pressure: 29.89 "Hg

Humidity: 38%

Dew point: 41 °F

Location of HobartLocation

Historic Weather in Hobart — Graph

°F

Hobart temperature yesterday

Maximum temperature yesterday: 63 °F (at 12:00 PM)
Minimum temperature yesterday: 46 °F (at 3:30 AM)
Average temperature yesterday: 56 °F

Past Weeks' High & Low Weather Summary

 TemperatureHumidityPressure
High86 °F (Dec 16, 2:00 PM)100% (Dec 8, 12:30 AM)30.24 "Hg (Dec 8, 12:30 AM)
Low43 °F (Dec 12, 3:30 AM)24% (Dec 17, 3:30 PM)29.00 "Hg (Dec 16, 4:30 PM)
Average59 °F66%29.84 "Hg
* Reported Dec 5 11:00 AM — Dec 20 11:00 AM, Hobart, Weather by CustomWeather, © 2014

Note: Actual official high and low records may vary slightly from our data, if they occured in-between our weather recording intervals... More about our weather records

Advertising

Hobart weather history for previous 24 hours

 ConditionsComfort  
Time TempWeatherWind HumidityBarometerVisibility
11:00 AM
Dec 20
68 °FScattered clouds.13 mph40%29.89 "HgN/A
10:30 AM66 °FScattered clouds.17 mph49%29.89 "HgN/A
10:00 AM63 °FScattered showers. Partly sunny.12 mph59%29.89 "HgN/A
9:30 AM64 °FScattered showers. Scattered clouds.9 mph56%29.86 "HgN/A
9:00 AM64 °FScattered clouds.12 mph56%29.86 "HgN/A
8:00 AM61 °FScattered clouds.13 mph59%29.86 "HgN/A
7:00 AM59 °FScattered clouds.10 mph63%29.83 "HgN/A
6:30 AM57 °FPassing clouds.10 mph63%29.83 "HgN/A
6:00 AM57 °FScattered clouds.9 mph63%29.83 "HgN/A
5:30 AM55 °FBroken clouds.8 mph67%29.83 "HgN/A
5:00 AM55 °FPassing clouds.9 mph67%29.83 "HgN/A
4:30 AM55 °FPassing clouds.7 mph63%29.83 "HgN/A
4:00 AM57 °FPartly cloudy.8 mph59%29.83 "HgN/A
3:30 AM57 °FPassing clouds.7 mph59%29.83 "HgN/A
3:00 AM57 °FPassing clouds.9 mph55%29.86 "HgN/A
2:30 AM57 °FPassing clouds.8 mph55%29.86 "HgN/A
2:00 AM57 °FPassing clouds.10 mph51%29.86 "HgN/A
1:30 AM57 °FClear.14 mph51%29.89 "Hg10 mi
1:00 AM57 °FClear.12 mph55%29.89 "Hg10 mi
12:30 AM57 °FClear.13 mph55%29.92 "Hg10 mi
12:00 AM57 °FClear.15 mph51%29.92 "Hg10 mi
11:30 PM
Dec 19
57 °FClear.16 mph51%29.92 "Hg10 mi
11:00 PM57 °FSprinkles. Passing clouds.16 mph51%29.92 "HgN/A
10:30 PM59 °FPassing clouds.12 mph45%29.95 "HgN/A
10:00 PM59 °FPassing clouds.14 mph42%29.95 "HgN/A
9:30 PM59 °FPassing clouds.10 mph39%29.95 "HgN/A
9:00 PM59 °FPassing clouds.12 mph42%29.92 "HgN/A
8:30 PM61 °FPartly sunny.9 mph36%29.92 "HgN/A
8:00 PM61 °FPartly sunny.10 mph36%29.92 "HgN/A
7:30 PM61 °FPartly sunny.6 mph45%29.92 "HgN/A
7:00 PM61 °FBroken clouds.5 mph45%29.92 "HgN/A
6:00 PM61 °FBroken clouds.7 mph48%29.89 "HgN/A
5:00 PM61 °FPartly sunny.10 mph48%29.89 "HgN/A
4:00 PM61 °FPartly sunny.10 mph48%29.89 "HgN/A
3:30 PM61 °FBroken clouds.14 mph48%29.89 "HgN/A
3:00 PM63 °FSunny.3 mph39%29.86 "Hg10 mi
2:30 PM63 °FBroken clouds.10 mph39%29.86 "HgN/A
2:00 PM59 °FBroken clouds.14 mph51%29.86 "HgN/A
1:30 PM59 °FPartly sunny.13 mph55%29.89 "HgN/A
1:00 PM61 °FPartly sunny.18 mph48%29.86 "HgN/A
12:30 PM61 °FPassing clouds.8 mph36%29.89 "HgN/A
12:00 PM63 °FSunny.10 mph34%29.86 "Hg10 mi
Weather by CustomWeather, © 2014

See weather overviewHow to use our weather pages